STARLINK-11505, 62469

Orbit data source: Space-Track

STARLINK-11505, 62469 is a payload satellite owned by SpaceX/Seattle (US) in LEO that was launched on Tue, 31 Dec 2024 UTC via an FALCON 9 launch vehicle from the Air Force Eastern Test Range (AFETR). Payloads include a variety of satellites, spacecraft, and rockets equipped with specific instruments for various scientific and technological missions. These include communications satellites like Starlink; space stations such as the ISS; scientific satellites like the Hubble; Earth observation satellites from companies like Planet Labs, Umbra, and HawkEye 360; GPS; miniature CubeSats for education and research; and military/defense satellites.

Loading next visibility...
STARLINK-11505 details
Identifier
62469, 2024-254H
Orbit
LEO
Last TLE update1 day ago
Origin
Flag of USSpaceX/Seattle (US)
ManufacturerSpaceX/Seattle
MissionOperational Commercial Communications
Bus & MotorSTARLINK V2M, Unknown motor
Mass730 kg wet, ~700 kg dry
Launch date (UTC)
2024-12-31 (1 month ago)
Launch vehicle
FALCON 9
Launch site
Air Force Eastern Test Range (AFETR)
Object type
Payload
Rocket body
Debris
Shape & HBRBox + 2 Pan, 29 m
Radar Cross Section36.964 m², Large (>1 m²)

Expand to show TLE details & history

TLE from 1 day ago
0 STARLINK-11505
1 62469U 24254H   25035.19219044  .00003802  00000-0  24707-4 0  9996
2 62469  42.9986 106.2643 0001960 267.6766  92.3880 15.77855824  6700
Epoch: 2025-02-04T04:36Z
Definitive object data (Epoch: 2025-02-04T04:36:45.254Z)
Latitude0.00002°
Longitude-97.52525°
Altitude336.342 km
Speed7.709 km/s
True Right ascension07h 05m 03s
True Declination0° 00' 00"
Sunlit
Object was in full shadow at TLE epoch
Visualization TLE readout
Latitude-24.92398°
Longitude-133.36205°
Altitude341.705 km
Speed7.705 km/s
Apparent Right ascension01h 09m 16s
Apparent Declination-65° 06' 45"
Sunlit
Object is in daylight
Visualization observer readout
Local Sidereal Time06:47:27
Azimuth210.143° SW
Elevation-33.462°
Doppler factor1
Orbital elements
Apogee altitude339.821 km
Perigee altitude337.188 km
Semi-major axis6,716.642 km
Eccentricity0.000196
Inclination42.9986°
RAAN106.2643°
Arg. of periapsis267.6766°
True anomaly92.41044°
Mean anomaly92.388°
Eccentric anomaly92.39922°
Mean motion3.94289 °/min
BSTAR0.000024707
Orbital period91.3 mins
Loading maneuver chart data...
Loading historical data...
Loading historical data...
Loading historical data...
Loading historical data...
Loading historical data...
Loading historical data...
Loading historical data...

STARLINK-11505 Visibility forecast

Observer location: undefined°, undefined

Span
Click to sort rows by Start time (UTC) header in descending order
Start Az.
Max El. time (UTC)
Max El. Az.
Max El.
End time (UTC)
End Az.
4 mins2025-02-05 08:11:33.600Z228.447° WSW2025-02-05 08:13:33.600Z158.951° S37.518°2025-02-05 08:15:33.600Z83.437° E
4 mins2025-02-05 09:47:33.600Z283.811° WNW2025-02-05 09:49:33.600Z13.837° NNE35.211°2025-02-05 09:51:33.600Z65.756° ENE
4 mins2025-02-05 11:23:33.600Z300.082° NW2025-02-05 11:25:33.600Z41.339° NE35.726°2025-02-05 11:27:33.600Z85.748° E
|